Location: Ellerstadt
(49.4644°N, 8.2615°E)
Time: 05:05:13
(UTC+00:00)

Cosmos 1666 - Pass Details

Date: 03 March 2021
Orbit: 497 x 518 km, 82.5° (Epoch: 11 April)

Event Time Altitude Azimuth Distance (km) Brightness Sun altitude
Rises 18:29:21 0° 166° (SSE) 2,574 6.1 -13.2°
Reaches altitude 10° 18:31:34 10° 157° (SSE) 1,698 5.0 -13.5°
Maximum altitude 18:34:57 34° 92° (E) 847 3.2 -14.1°
Drops below altitude 10° 18:38:21 10° 27° (NNE) 1,717 5.1 -14.6°
Sets 18:40:36 0° 18° (NNE) 2,609 6.2 -15.0°
